Time,TemperatureF,DewpointF,PressureIn,WindDirection,WindDirectionDegrees,WindSpeedMPH,WindSpeedGustMPH,Humidity,HourlyPrecipIn,Conditions,Clouds,dailyrainin,SolarRadiationWatts/m^2,SoftwareType,DateUTC
2013-03-29 00:02:00,32.0,32.0,-100.00,ENE,60,1.0,5.0,100,0.00,,,-99.99,0.000000,,2013-03-29 07:02:00,
2013-03-29 00:32:00,32.0,32.0,-100.00,SE,138,1.0,5.0,100,0.00,,,-99.99,0.000000,,2013-03-29 07:32:00,
2013-03-29 00:42:00,32.0,32.0,-100.00,SE,138,1.0,5.0,100,0.00,,,-99.99,0.000000,,2013-03-29 07:42:00,
2013-03-29 00:52:00,32.0,32.0,-100.00,SE,138,1.0,5.0,100,0.00,,,-99.99,0.000000,,2013-03-29 07:52:00,
2013-03-29 01:02:00,32.0,32.0,-100.00,SE,138,1.0,5.0,100,0.00,,,-99.99,0.000000,,2013-03-29 08:02:00,
2013-03-29 01:32:00,31.0,31.0,-100.00,NNE,32,1.0,4.0,100,0.00,,,-99.99,0.000000,,2013-03-29 08:32:00,
2013-03-29 01:42:00,31.0,31.0,-100.00,NNE,32,1.0,4.0,100,0.00,,,-99.99,0.000000,,2013-03-29 08:42:00,
2013-03-29 01:52:00,31.0,31.0,-100.00,NNE,32,1.0,4.0,100,0.00,,,-99.99,0.000000,,2013-03-29 08:52:00,
2013-03-29 02:02:00,31.0,31.0,-100.00,NNE,32,1.0,4.0,100,0.00,,,-99.99,0.000000,,2013-03-29 09:02:00,
2013-03-29 02:33:00,31.0,31.0,-100.00,NE,38,1.0,7.0,100,0.00,,,-99.99,0.000000,,2013-03-29 09:33:00,
2013-03-29 02:43:00,31.0,31.0,-100.00,NE,38,1.0,7.0,100,0.00,,,-99.99,0.000000,,2013-03-29 09:43:00,
2013-03-29 02:52:00,31.0,31.0,-100.00,NE,38,1.0,7.0,100,0.00,,,-99.99,0.000000,,2013-03-29 09:52:00,
2013-03-29 03:02:00,31.0,31.0,-100.00,NE,38,1.0,7.0,100,0.00,,,-99.99,0.000000,,2013-03-29 10:02:00,
2013-03-29 03:33:00,33.0,33.0,-100.00,East,81,1.0,6.0,100,0.00,,,-99.99,0.000000,,2013-03-29 10:33:00,
2013-03-29 03:42:00,33.0,33.0,-100.00,East,81,1.0,6.0,100,0.00,,,-99.99,0.000000,,2013-03-29 10:42:00,
2013-03-29 03:53:00,33.0,33.0,-100.00,East,81,1.0,6.0,100,0.00,,,-99.99,0.000000,,2013-03-29 10:53:00,
2013-03-29 04:02:00,33.0,33.0,-100.00,East,81,1.0,6.0,100,0.00,,,-99.99,0.000000,,2013-03-29 11:02:00,
2013-03-29 04:33:00,33.0,33.0,-100.00,NNE,29,1.0,4.0,100,0.00,,,-99.99,0.000000,,2013-03-29 11:33:00,
2013-03-29 04:43:00,33.0,33.0,-100.00,NNE,29,1.0,4.0,100,0.00,,,-99.99,0.000000,,2013-03-29 11:43:00,
2013-03-29 04:52:00,33.0,33.0,-100.00,NNE,29,1.0,4.0,100,0.00,,,-99.99,0.000000,,2013-03-29 11:52:00,
2013-03-29 05:02:00,33.0,33.0,-100.00,NNE,29,1.0,4.0,100,0.00,,,-99.99,0.000000,,2013-03-29 12:02:00,
2013-03-29 05:32:00,33.0,33.0,-100.00,NE,41,1.0,6.0,100,0.00,,,-99.99,0.000000,,2013-03-29 12:32:00,
2013-03-29 05:43:00,33.0,33.0,-100.00,NE,41,1.0,6.0,100,0.00,,,-99.99,0.000000,,2013-03-29 12:43:00,
2013-03-29 05:52:00,33.0,33.0,-100.00,NE,41,1.0,6.0,100,0.00,,,-99.99,0.000000,,2013-03-29 12:52:00,
2013-03-29 06:02:00,33.0,33.0,-100.00,NE,41,1.0,6.0,100,0.00,,,-99.99,0.000000,,2013-03-29 13:02:00,
2013-03-29 06:33:00,32.0,32.0,-100.00,ESE,121,1.0,6.0,100,0.00,,,-99.99,0.000000,,2013-03-29 13:33:00,
2013-03-29 06:43:00,32.0,32.0,-100.00,ESE,121,1.0,6.0,100,0.00,,,-99.99,0.000000,,2013-03-29 13:43:00,
2013-03-29 06:53:00,32.0,32.0,-100.00,ESE,121,1.0,6.0,100,0.00,,,-99.99,0.000000,,2013-03-29 13:53:00,
2013-03-29 07:02:00,32.0,32.0,-100.00,ESE,121,1.0,6.0,100,0.00,,,-99.99,0.000000,,2013-03-29 14:02:00,
2013-03-29 07:33:00,32.0,32.0,-100.00,NE,40,1.0,4.0,100,0.00,,,-99.99,1.000000,,2013-03-29 14:33:00,
2013-03-29 07:42:00,32.0,32.0,-100.00,NE,40,1.0,4.0,100,0.00,,,-99.99,1.000000,,2013-03-29 14:42:00,
2013-03-29 07:52:00,32.0,32.0,-100.00,NE,40,1.0,4.0,100,0.00,,,-99.99,1.000000,,2013-03-29 14:52:00,
2013-03-29 08:02:00,32.0,32.0,-100.00,NE,40,1.0,4.0,100,0.00,,,-99.99,1.000000,,2013-03-29 15:02:00,
2013-03-29 08:33:00,36.0,36.0,-100.00,NNW,335,1.0,5.0,100,0.00,,,-99.99,52.000000,,2013-03-29 15:33:00,
2013-03-29 08:43:00,36.0,36.0,-100.00,NNW,335,1.0,5.0,100,0.00,,,-99.99,52.000000,,2013-03-29 15:43:00,
2013-03-29 08:53:00,36.0,36.0,-100.00,NNW,335,1.0,5.0,100,0.00,,,-99.99,52.000000,,2013-03-29 15:53:00,
2013-03-29 09:03:00,36.0,36.0,-100.00,NNW,335,1.0,5.0,100,0.00,,,-99.99,52.000000,,2013-03-29 16:03:00,
2013-03-29 09:33:00,39.0,38.0,-100.00,NNE,21,1.0,4.0,97,0.00,,,-99.99,128.000000,,2013-03-29 16:33:00,
2013-03-29 09:43:00,39.0,38.0,-100.00,NNE,21,1.0,4.0,97,0.00,,,-99.99,128.000000,,2013-03-29 16:43:00,
2013-03-29 09:53:00,39.0,38.0,-100.00,NNE,21,1.0,4.0,97,0.00,,,-99.99,128.000000,,2013-03-29 16:53:00,
2013-03-29 10:02:00,39.0,38.0,-100.00,NNE,21,1.0,4.0,97,0.00,,,-99.99,128.000000,,2013-03-29 17:02:00,
2013-03-29 10:33:00,48.0,40.0,-100.00,NE,53,1.0,3.0,75,0.00,,,-99.99,227.000000,,2013-03-29 17:33:00,
2013-03-29 10:43:00,48.0,40.0,-100.00,NE,53,1.0,3.0,75,0.00,,,-99.99,227.000000,,2013-03-29 17:43:00,
2013-03-29 10:52:00,48.0,40.0,-100.00,NE,53,1.0,3.0,75,0.00,,,-99.99,227.000000,,2013-03-29 17:52:00,
2013-03-29 11:02:00,48.0,40.0,-100.00,NE,53,1.0,3.0,75,0.00,,,-99.99,227.000000,,2013-03-29 18:02:00,
2013-03-29 11:33:00,59.0,39.0,-100.00,SSE,162,1.0,6.0,48,0.00,,,0.00,484.000000,,2013-03-29 18:33:00,
2013-03-29 12:33:00,56.0,34.0,-100.00,SSW,205,1.0,5.0,44,-99.99,,,0.00,473.000000,,2013-03-29 19:33:00,
2013-03-29 12:43:00,56.0,34.0,-100.00,SSW,205,1.0,5.0,44,-99.99,,,0.00,473.000000,,2013-03-29 19:43:00,
2013-03-29 12:52:00,56.0,34.0,-100.00,SSW,205,1.0,5.0,44,-99.99,,,0.00,473.000000,,2013-03-29 19:52:00,
2013-03-29 13:02:00,56.0,34.0,-100.00,SSW,205,1.0,5.0,44,-99.99,,,0.00,473.000000,,2013-03-29 20:02:00,
2013-03-29 13:33:00,63.0,38.0,-100.00,NNW,336,2.0,9.0,39,0.00,,,0.00,509.000000,,2013-03-29 20:33:00,
2013-03-29 13:42:00,63.0,38.0,-100.00,NNW,336,2.0,9.0,39,0.00,,,0.00,509.000000,,2013-03-29 20:42:00,
2013-03-29 13:52:00,63.0,38.0,-100.00,NNW,336,2.0,9.0,39,0.00,,,0.00,509.000000,,2013-03-29 20:52:00,
2013-03-29 14:33:00,60.0,34.0,-100.00,South,178,2.0,11.0,38,-99.99,,,0.00,723.000000,,2013-03-29 21:33:00,
2013-03-29 14:43:00,60.0,34.0,-100.00,South,178,2.0,11.0,38,-99.99,,,0.00,723.000000,,2013-03-29 21:43:00,
2013-03-29 14:53:00,60.0,34.0,-100.00,South,178,2.0,11.0,38,-99.99,,,0.00,723.000000,,2013-03-29 21:53:00,
2013-03-29 15:03:00,60.0,34.0,-100.00,South,178,2.0,11.0,38,-99.99,,,0.00,723.000000,,2013-03-29 22:03:00,
2013-03-29 15:34:00,67.0,36.0,-100.00,West,278,3.0,10.0,32,0.00,,,0.00,864.000000,,2013-03-29 22:34:00,
2013-03-29 16:32:00,65.0,32.0,-100.00,SSE,163,3.0,10.0,29,-99.99,,,0.00,900.000000,,2013-03-29 23:32:00,
2013-03-29 16:42:00,65.0,32.0,-100.00,SSE,163,3.0,10.0,29,-99.99,,,0.00,900.000000,,2013-03-29 23:42:00,
2013-03-29 16:52:00,65.0,32.0,-100.00,SSE,163,3.0,10.0,29,-99.99,,,0.00,900.000000,,2013-03-29 23:52:00,
2013-03-29 17:33:00,55.0,38.0,-100.00,SSE,147,1.0,8.0,53,-99.99,,,0.00,345.000000,,2013-03-30 00:33:00,
2013-03-29 17:43:00,55.0,38.0,-100.00,SSE,147,1.0,8.0,53,-99.99,,,0.00,345.000000,,2013-03-30 00:43:00,
2013-03-29 17:53:00,55.0,38.0,-100.00,SSE,147,1.0,8.0,53,-99.99,,,0.00,345.000000,,2013-03-30 00:53:00,
2013-03-29 18:02:00,55.0,38.0,-100.00,SSE,147,1.0,8.0,53,-99.99,,,0.00,345.000000,,2013-03-30 01:02:00,
2013-03-29 18:33:00,53.0,37.0,-100.00,East,83,1.0,5.0,55,0.00,,,0.00,139.000000,,2013-03-30 01:33:00,
2013-03-29 18:43:00,53.0,37.0,-100.00,East,83,1.0,5.0,55,0.00,,,0.00,139.000000,,2013-03-30 01:43:00,
2013-03-29 18:52:00,53.0,37.0,-100.00,East,83,1.0,5.0,55,0.00,,,0.00,139.000000,,2013-03-30 01:52:00,
2013-03-29 19:02:00,53.0,37.0,-100.00,East,83,1.0,5.0,55,0.00,,,0.00,139.000000,,2013-03-30 02:02:00,
2013-03-29 19:33:00,43.0,37.0,-100.00,North,357,1.0,4.0,79,0.00,,,0.00,43.000000,,2013-03-30 02:33:00,
2013-03-29 20:33:00,37.0,35.0,-100.00,East,80,1.0,3.0,94,0.00,,,0.00,4.000000,,2013-03-30 03:33:00,
2013-03-29 21:33:00,33.0,33.0,-100.00,ENE,58,1.0,4.0,99,-99.99,,,0.00,0.000000,,2013-03-30 04:33:00,
2013-03-29 22:32:00,33.0,33.0,-100.00,ENE,70,1.0,5.0,100,-99.99,,,0.00,0.000000,,2013-03-30 05:32:00,
2013-03-29 22:42:00,33.0,33.0,-100.00,ENE,70,1.0,5.0,100,-99.99,,,0.00,0.000000,,2013-03-30 05:42:00,
2013-03-29 22:52:00,33.0,33.0,-100.00,ENE,70,1.0,5.0,100,-99.99,,,0.00,0.000000,,2013-03-30 05:52:00,
2013-03-29 23:32:00,33.0,33.0,-100.00,NNE,16,1.0,6.0,100,-99.99,,,0.00,0.000000,,2013-03-30 06:32:00,
2013-03-29 23:42:00,33.0,33.0,-100.00,NNE,16,1.0,6.0,100,-99.99,,,0.00,0.000000,,2013-03-30 06:42:00,
2013-03-29 23:52:00,33.0,33.0,-100.00,NNE,16,1.0,6.0,100,-99.99,,,0.00,0.000000,,2013-03-30 06:52:00,